Skip Page Navigation
NASA JPL Caltech
NASA Logo - Jet Propulsion Laboratory + View the NASA Portal
+ Near-Earth Object (NEO) Program
Search JPL
JPL Home Earth Solar System Stars & Galaxies Technology
JPL Solar System Dynamics
BODIES ORBITS EPHEMERIDES TOOLS PHYSICAL DATA DISCOVERY FAQ SITE MAP
JPL Small-Body Database Browser
Search: [ help ]  
6061 (1981 SQ2)
Classification: Main-belt Asteroid          SPK-ID: 2006061
Ephemeris | Orbit Diagram | Orbital Elements | Physical Parameters | Discovery Circumstances ]

[ show orbit diagram ]
Orbital Elements at Epoch 2456800.5 (2014-May-23.0) TDB
Reference: JPL 6 (heliocentric ecliptic J2000)
 Element Value Uncertainty (1-sigma)   Units 
e .1609689632148592 6.4865e-08  
a 2.275541695642757 1.0981e-08 AU
q 1.909250108142959 1.4682e-07 AU
i 3.995023336964756 5.8362e-06 deg
node 20.71890805544477 8.462e-05 deg
peri 322.4347536088811 8.5979e-05 deg
M 184.8613612267168 1.5743e-05 deg
tp 2457410.465248264047
(2016-Jan-22.96524826)
5.6354e-05 JED
period 1253.792372220687
3.43
9.0754e-06
2.485e-08
d
yr
n .2871288803283886 2.0783e-09 deg/d
Q 2.641833283142554 1.2748e-08 AU
  Orbit Determination Parameters
   # obs. used (total)      1197  
   data-arc span      22207 days (60.80 yr)  
   first obs. used      1953-05-18  
   last obs. used      2014-03-06  
   planetary ephem.      DE431  
   SB-pert. ephem.      SB431-BIG16  
   condition code      0  
   fit RMS      .56208  
   data source      ORB  
   producer      Otto Matic  
   solution date      2014-Mar-22 10:48:00  

Additional Information
 Earth MOID = .902193 AU 
 T_jup = 3.589 
[ show covariance matrix ]

Ephemeris | Orbit Diagram | Orbital Elements | Physical Parameters | Discovery Circumstances ]

Physical Parameter Table
Parameter Symbol Value Units Sigma Reference Notes
absolute magnitude H 13.7 mag n/a MPO253405  

6061 (1981 SQ2)          Discovered 1981-Sep-20 by Debehogne, H. at La Silla (809)
Reference: DISCOVERY.DBLast Updated: 2003-08-29

Alternate Designations
 1981 SQ2 = 1964 TV1 = 1964 VG1 = 1985 XZ 
Ephemeris | Orbit Diagram | Orbital Elements | Physical Parameters | Discovery Circumstances ]
ABOUT SSD CREDITS/AWARDS PRIVACY/COPYRIGHT GLOSSARY LINKS
FirstGov 2014-Apr-17 12:35 UT
(server date/time)  
NASA Home Page
Site Manager:   Donald K. Yeomans
Webmaster  Alan B. Chamberlin